Flag for U.S.A. Weather past 2 weeks in Victorville, California, U.S.A.

Now
70 °F

Scattered clouds.


Feels Like: 70 °F
Forecast: 44 / 78 °F
Wind: 5 mph from Southwest

Location: George Air Force Base / Victorvi


UV Index: 7 (High)

Visibility: 10 mi


Pressure: 30.02 "Hg

Humidity: 17%

Dew point: 23 °F

Location of VictorvilleLocation

Historic Weather in Victorville

°F

Victorville temperature yesterday

Maximum temperature yesterday: 72 °F (at 3:15 PM)
Minimum temperature yesterday: 45 °F (at 6:15 AM)
Average temperature yesterday: 58 °F

Past Weeks' High & Low Weather Summary

 TemperatureHumidityPressure
High88 °F (Apr 9, 2:15 PM)82% (Apr 19, 4:35 AM)30.20 "Hg (Apr 19, 4:35 AM)
Low43 °F (Apr 14, 5:35 AM)3% (Apr 9, 2:15 PM)29.77 "Hg (Apr 16, 4:35 PM)
Average66 °F29%29.96 "Hg
* Reported Apr 9 11:15 AM — Apr 24 11:55 AM, Victorville, Weather by CustomWeather, © 2014

Note: Actual official high and low records may vary slightly from our data, if they occured in-between our weather recording intervals... More about our weather records

Advertising

Historic Weather Conditions — Data for Previous 24 hours

 ConditionsComfort  
Time TempWeatherWind HumidityBarometerVisibility
11:55 AM
Apr 24
68 °FScattered clouds.6 mph20%30.03 "Hg10 mi
11:35 AM68 °FScattered clouds.No wind21%30.04 "Hg10 mi
11:15 AM66 °FScattered clouds.No wind22%30.04 "Hg10 mi
10:55 AM66 °FScattered clouds.5 mph22%30.04 "Hg10 mi
10:35 AM63 °FScattered clouds.5 mph25%30.05 "Hg10 mi
10:15 AM63 °FScattered clouds.3 mph25%30.05 "Hg10 mi
9:55 AM61 °FSunny.5 mph27%30.05 "Hg10 mi
9:35 AM61 °FSunny.6 mph27%30.05 "Hg10 mi
9:15 AM57 °FSunny.6 mph31%30.05 "Hg10 mi
8:55 AM55 °FSunny.5 mph33%30.04 "Hg10 mi
8:35 AM55 °FSunny.6 mph33%30.04 "Hg10 mi
8:15 AM54 °FCool.6 mph33%30.03 "Hg10 mi
7:55 AM54 °FCool.5 mph33%30.04 "Hg10 mi
7:35 AM52 °FCool.3 mph32%30.04 "Hg10 mi
7:15 AM50 °FCool.5 mph35%30.03 "Hg10 mi
6:55 AM48 °FCool.6 mph37%30.03 "Hg10 mi
6:15 AM43 °FQuite cool.5 mph42%30.02 "Hg10 mi
5:55 AM43 °FQuite cool.7 mph42%30.01 "Hg10 mi
5:35 AM43 °FQuite cool.7 mph42%30.01 "Hg10 mi
5:15 AM45 °FQuite cool.8 mph39%30.01 "Hg10 mi
4:55 AM45 °FQuite cool.6 mph39%30.01 "Hg10 mi
4:15 AM48 °FCool.5 mph34%30.00 "Hg10 mi
3:55 AM48 °FCool.7 mph34%30.01 "Hg10 mi
3:35 AM48 °FCool.6 mph34%30.01 "Hg10 mi
3:15 AM45 °FQuite cool.3 mph39%30.01 "Hg10 mi
2:55 AM45 °FQuite cool.5 mph37%30.00 "Hg10 mi
2:35 AM46 °FCool.7 mph34%30.01 "Hg10 mi
2:15 AM46 °FCool.5 mph37%30.01 "Hg10 mi
1:55 AM46 °FCool.5 mph37%30.01 "Hg10 mi
1:15 AM48 °FCool.3 mph34%30.02 "Hg10 mi
12:55 AM48 °FCool.No wind34%30.02 "Hg10 mi
12:15 AM52 °FClear.3 mph30%30.02 "Hg10 mi
11:55 PM
Apr 23
52 °FClear.5 mph30%30.02 "Hg10 mi
11:35 PM52 °FClear.3 mph30%30.02 "Hg10 mi
11:15 PM54 °FClear.5 mph28%30.02 "Hg10 mi
10:55 PM54 °FClear.No wind28%30.02 "Hg10 mi
10:15 PM55 °FClear.6 mph31%30.01 "Hg10 mi
9:55 PM55 °FClear.10 mph31%30.00 "Hg10 mi
9:35 PM57 °FClear.12 mph29%30.01 "Hg10 mi
9:15 PM57 °FClear.12 mph29%30.00 "Hg10 mi
8:55 PM59 °FClear.10 mph27%30.00 "Hg10 mi
8:15 PM63 °FSunny.14 mph25%29.97 "Hg10 mi
7:55 PM64 °FSunny.14 mph24%29.96 "Hg10 mi
7:35 PM68 °FSunny.9 mph11%29.95 "Hg10 mi
7:15 PM70 °FSunny.No wind11%29.94 "Hg10 mi
6:55 PM70 °FSunny.3 mph11%29.94 "Hg10 mi
6:35 PM70 °FSunny.No wind11%29.94 "Hg10 mi
6:15 PM72 °FScattered clouds.6 mph10%29.94 "Hg10 mi
5:55 PM72 °FScattered clouds.6 mph11%29.93 "Hg10 mi
5:35 PM72 °FScattered clouds.No wind11%29.93 "Hg10 mi
5:15 PM72 °FSunny.6 mph11%29.93 "Hg10 mi
4:55 PM72 °FScattered clouds.3 mph11%29.93 "Hg10 mi
4:35 PM72 °FScattered clouds.6 mph11%29.93 "Hg10 mi
4:15 PM72 °FScattered clouds.3 mph12%29.93 "Hg10 mi
3:55 PM72 °FScattered clouds.No wind11%29.94 "Hg10 mi
3:15 PM72 °FScattered clouds.7 mph11%29.96 "Hg10 mi
2:55 PM70 °FScattered clouds.5 mph12%29.97 "Hg10 mi
2:15 PM70 °FScattered clouds.9 mph12%29.98 "Hg10 mi
1:55 PM68 °FScattered clouds.8 mph12%29.99 "Hg10 mi
1:35 PM66 °FScattered clouds.5 mph13%30.00 "Hg10 mi
1:15 PM66 °FScattered clouds.9 mph14%30.00 "Hg10 mi
12:55 PM64 °FSunny.6 mph14%30.01 "Hg10 mi
12:15 PM63 °FScattered clouds.No wind16%30.02 "Hg10 mi
Weather by CustomWeather, © 2014

See weather overview